• Join FlightAware (Why Join?)
  • Login
  • US Flag 
11:37PM EDT


 

Airport Tracker/Info


-or-


 

Live Flight TrackerFlight Track Log ✈ SWA2169 ✈ 27-Jul-2013 ✈ KMDW - KMHT

Flight Track Log - Related Links

Times and Time Zones

All times are in EDT time to prevent confusion due to time zone crossing. See the SWA2169 flight status page for this flight to view local times or setup timezone preferences in your user account.

Time Position Orientation Groundspeed Altitude Reporting Facility
EDT Latitude Longitude Course Direction KTS MPH feet Rate Location/Type
09:49PM 41.8020 -87.7730 333° Northwest 157 181 2,000  Level FlightAware
09:49PM 41.8080 -87.7750 346° North 169 194 2,300 1,500 Climbing FlightAware
09:50PM 41.8220 -87.7670 23° Northeast 210 242 2,700 1,080 Climbing FlightAware
09:50PM 41.8290 -87.7550 52° Northeast 230 265 2,900 1,020 Climbing FlightAware
09:50PM 41.8320 -87.7360 78° East 257 296 3,100 1,380 Climbing FlightAware
09:50PM 41.8220 -87.6820 104° East 282 325 3,900 2,400 Climbing FlightAware
09:51PM 41.8110 -87.6380 109° East 286 329 5,500 3,480 Climbing FlightAware
09:51PM 41.8020 -87.5870 103° East 293 337 7,200 3,480 Climbing FlightAware
09:52PM 41.8010 -87.5650 93° East 297 342 7,900 3,240 Climbing FlightAware
09:52PM 41.7960 -87.5090 97° East 308 354 9,500 3,180 Climbing FlightAware
09:53PM 41.7890 -87.4290 97° East 318 366 11,800 3,120 Climbing FlightAware
09:54PM 41.7850 -87.3430 94° East 335 386 13,900 1,920 Climbing FlightAware
09:54PM 41.7930 -87.2450 84° East 395 455 14,600 1,680 Climbing FlightAware
09:55PM 41.8000 -87.1500 84° East 408 470 16,300 2,700 Climbing FlightAware
09:56PM 41.8100 -87.0330 83° East 419 482 18,400 2,580 Climbing FlightAware
09:56PM 41.8190 -86.9270 83° East 430 495 20,000 2,340 Climbing FlightAware
09:57PM 41.8290 -86.8110 83° East 439 505 21,700 2,280 Climbing FlightAware
09:58PM 41.8380 -86.7130 83° East 446 513 23,100 2,100 Climbing FlightAware
09:58PM 41.8480 -86.5920 84° East 455 524 24,500 1,800 Climbing FlightAware
09:59PM 41.8580 -86.4670 84° East 464 534 25,800 1,740 Climbing FlightAware
10:00PM 41.8670 -86.3520 84° East 471 542 27,000 1,620 Climbing FlightAware
10:00PM 41.8810 -86.2340 81° East 479 551 28,000 1,440 Climbing FlightAware
10:01PM 41.8970 -86.1080 80° East 484 557 29,100 1,560 Climbing FlightAware
10:02PM 41.9130 -85.9750 81° East 486 559 30,300 1,560 Climbing FlightAware
10:03PM 41.9280 -85.8590 80° East 488 562 31,300 1,260 Climbing FlightAware
10:03PM 41.9420 -85.7430 81° East 495 570 32,000 1,080 Climbing FlightAware
10:04PM 41.9570 -85.6210 81° East 500 575 32,700 1,020 Climbing FlightAware
10:05PM 41.9710 -85.4950 81° East 504 580 33,400 1,020 Climbing FlightAware
10:05PM 41.9860 -85.3740 80° East 506 582 34,100 1,080 Climbing FlightAware
10:06PM 42.0000 -85.2530 81° East 506 582 34,800 540 Climbing FlightAware
10:07PM 42.0200 -85.0750 81° East 502 578 35,000 120 Climbing FlightAware
10:07PM 42.0330 -84.9630 81° East 502 578 35,000  Level FlightAware
10:08PM 42.0480 -84.8330 81° East 502 578 35,000  Level FlightAware
10:09PM 42.0630 -84.7040 81° East 503 579 35,000  Level FlightAware
10:09PM 42.0750 -84.5920 82° East 502 578 35,000  Level FlightAware
10:10PM 42.0890 -84.4650 82° East 501 577 35,000  Level FlightAware
10:11PM 42.1010 -84.3550 82° East 500 575 35,000  Level FlightAware
10:11PM 42.1160 -84.2170 82° East 499 574 35,000  Level FlightAware
10:12PM 42.1290 -84.0960 82° East 498 573 35,000  Level FlightAware
10:13PM 42.1450 -83.9440 82° East 498 573 35,000  Level FlightAware
10:14PM 42.1570 -83.8210 82° East 499 574 35,000  Level FlightAware
10:14PM 42.1690 -83.7060 82° East 499 574 35,000  Level FlightAware
10:15PM 42.1810 -83.5880 82° East 498 573 35,000  Level FlightAware
10:16PM 42.1950 -83.4490 82° East 498 573 35,000  Level FlightAware
10:16PM 42.2070 -83.3250 83° East 502 578 35,000 480 Level FlightAware
10:17PM 42.2210 -83.1910 82° East 502 578 35,700 900 Climbing FlightAware
10:18PM 42.2330 -83.0600 83° East 501 577 36,300 900 Climbing FlightAware
10:18PM 42.2450 -82.9380 82° East 496 571 37,000 540 Climbing FlightAware
10:19PM 42.2560 -82.8250 82° East 499 574 37,000  Level FlightAware
10:20PM 42.2670 -82.7050 83° East 506 582 37,000  Level FlightAware
10:20PM 42.2800 -82.5650 83° East 508 585 37,000  Level FlightAware
10:21PM 42.2900 -82.4520 83° East 509 586 37,000  Level FlightAware
10:22PM 42.3020 -82.3250 83° East 511 588 37,000  Level FlightAware
10:22PM 42.3130 -82.1950 83° East 513 590 37,000  Level FlightAware
10:23PM 42.3220 -82.0990 83° East 513 590 37,000  Level FlightAware
10:24PM 42.3350 -81.9510 83° East 511 588 37,000  Level FlightAware
10:24PM 42.3440 -81.8420 84° East 510 587 37,000  Level FlightAware
10:25PM 42.3570 -81.6910 83° East 507 583 37,000  Level FlightAware
10:26PM 42.3670 -81.5760 83° East 507 583 37,000  Level FlightAware
10:26PM 42.3770 -81.4450 84° East 508 585 37,000  Level FlightAware
10:27PM 42.3870 -81.3270 83° East 514 592 37,000  Level FlightAware
10:28PM 42.3980 -81.1910 84° East 514 592 37,000  Level FlightAware
10:29PM 42.4110 -81.0300 84° East 514 592 37,000  Level FlightAware
10:29PM 42.4190 -80.9220 84° East 514 592 37,000  Level FlightAware
10:30PM 42.4310 -80.7710 84° East 515 593 37,000  Level FlightAware
10:31PM 42.4400 -80.6490 84° East 515 593 37,000  Level FlightAware
10:31PM 42.4510 -80.5060 84° East 515 593 37,000  Level FlightAware
10:32PM 42.4600 -80.3800 84° East 514 592 37,000  Level FlightAware
10:33PM 42.4700 -80.2310 85° East 513 590 37,000  Level FlightAware
10:33PM 42.4800 -80.0880 85° East 513 590 37,000  Level FlightAware
10:34PM 42.4890 -79.9610 84° East 512 589 37,000  Level FlightAware
10:35PM 42.4970 -79.8460 85° East 510 587 37,000  Level FlightAware
10:35PM 42.5070 -79.6970 85° East 502 578 37,000  Level FlightAware
10:36PM 42.5150 -79.5810 85° East 499 574 37,000  Level FlightAware
10:37PM 42.5220 -79.4670 85° East 498 573 37,000  Level FlightAware
10:37PM 42.5300 -79.3500 85° East 497 572 37,000  Level FlightAware
10:38PM 42.5370 -79.2350 85° East 497 572 37,000 180 Level FlightAware
10:39PM 42.5450 -79.1040 85° East 493 567 37,300 1,140 Climbing FlightAware
10:39PM 42.5540 -78.9500 85° East 475 547 38,700 1,080 Climbing FlightAware
10:40PM 42.5610 -78.8310 85° East 480 552 38,900 180 Climbing FlightAware
10:41PM 42.5690 -78.6970 85° East 483 556 39,000 60 Climbing FlightAware
10:42PM 42.5770 -78.5630 85° East 484 557 39,000  Level FlightAware
10:42PM 42.5830 -78.4670 85° East 484 557 39,000  Level FlightAware
10:43PM 42.5900 -78.3350 86° East 485 558 39,000  Level FlightAware
10:44PM 42.5970 -78.2130 86° East 486 559 39,000  Level FlightAware
10:44PM 42.6040 -78.0780 86° East 489 563 39,000  Level FlightAware
10:45PM 42.6100 -77.9570 86° East 490 564 39,000  Level FlightAware
10:46PM 42.6160 -77.8350 86° East 491 565 39,000  Level FlightAware
10:46PM 42.6230 -77.6850 86° East 493 567 39,000  Level FlightAware
10:47PM 42.6280 -77.5870 86° East 494 568 39,000  Level FlightAware
10:48PM 42.6350 -77.4490 86° East 496 571 39,000  Level FlightAware
10:48PM 42.6410 -77.3260 86° East 494 568 39,000  Level FlightAware
10:49PM 42.6460 -77.2130 87° East 493 567 39,000  Level FlightAware
10:50PM 42.6510 -77.0920 87° East 493 567 39,000  Level FlightAware
10:50PM 42.6570 -76.9550 87° East 492 566 39,000  Level FlightAware
10:51PM 42.6620 -76.8250 87° East 491 565 39,000  Level FlightAware
10:52PM 42.6680 -76.6920 86° East 490 564 39,000  Level FlightAware
10:52PM 42.6720 -76.5690 87° East 489 563 39,000  Level FlightAware
10:53PM 42.6780 -76.4330 87° East 488 562 39,000  Level FlightAware
10:54PM 42.6820 -76.3220 87° East 488 562 39,000  Level FlightAware
10:54PM 42.6860 -76.2030 87° East 489 563 39,000  Level FlightAware
10:55PM 42.6910 -76.0780 87° East 492 566 39,000  Level FlightAware
10:56PM 42.6950 -75.9540 87° East 492 566 39,000  Level FlightAware
10:56PM 42.6990 -75.8360 87° East 492 566 39,000  Level FlightAware
10:57PM 42.7030 -75.7090 88° East 493 567 39,000  Level FlightAware
10:58PM 42.7070 -75.5850 87° East 494 568 39,000  Level FlightAware
10:59PM 42.7110 -75.4470 88° East 494 568 39,000  Level FlightAware
10:59PM 42.7140 -75.3230 88° East 492 566 39,000 -1,080 Level FlightAware
11:00PM 42.7180 -75.1880 88° East 488 562 37,500 -2,400 Descending FlightAware
11:01PM 42.7220 -75.0670 87° East 493 567 35,700 -3,240 Descending FlightAware
11:01PM 42.7240 -74.9540 89° East 508 585 33,500 -3,720 Descending FlightAware
11:02PM 42.7270 -74.8170 88° East 518 596 30,900 -3,240 Descending FlightAware
11:03PM 42.7300 -74.6810 88° East 516 594 29,000 -1,440 Descending FlightAware
11:03PM 42.7330 -74.5590 88° East 506 582 29,000  Level FlightAware
11:04PM 42.7360 -74.4320 88° East 503 579 29,000 -120 Level FlightAware
11:05PM 42.7390 -74.2970 88° East 498 573 28,900 -480 Descending FlightAware
11:05PM 42.7410 -74.1970 88° East 496 571 28,400 -660 Descending FlightAware
11:06PM 42.7430 -74.0690 89° East 492 566 28,100 -600 Descending FlightAware
11:07PM 42.7470 -73.8710 88° East 486 559 27,300 -480 Descending FlightAware
11:08PM 42.7500 -73.7750 88° East 486 559 27,300  Level FlightAware
11:09PM 42.7530 -73.6470 88° East 486 559 27,300  Level FlightAware
11:09PM 42.7550 -73.5540 88° East 486 559 27,300 -2,520 Level FlightAware
11:10PM 42.7630 -73.3720 87° East 459 528 23,900 -2,940 Descending FlightAware
11:10PM 42.7670 -73.2680 87° East 458 527 23,300 -1,320 Descending FlightAware
11:11PM 42.7710 -73.1300 88° East 447 514 22,100 -900 Descending FlightAware
11:12PM 42.7740 -73.0260 88° East 447 514 22,000 -120 Descending FlightAware
11:13PM 42.7780 -72.9400 86° East 447 514 22,000  Level FlightAware
11:13PM 42.7820 -72.8250 87° East 447 514 22,000 -1,860 Level FlightAware
11:14PM 42.7570 -73.5570 268° West 19,200 -2,880 Descending FlightAware
11:15PM 42.7880 -72.5810 87° East 411 473 18,000 -1,680 Descending FlightAware
11:15PM 42.7890 -72.4850 89° East 403 464 16,500 -2,940 Descending FlightAware
11:16PM 42.7930 -72.3190 88° East 387 445 13,200 -2,220 Descending FlightAware
11:17PM 42.7950 -72.2610 87° East 386 444 13,100 -1,260 Descending FlightAware
11:18PM 42.8000 -72.2400 72° East 380 437 11,600 -2,160 Descending FlightAware
11:18PM 42.8130 -72.0500 85° East 341 392 10,100 -1,680 Descending FlightAware
11:19PM 42.8170 -72.0070 83° East 315 362 9,900 -840 Descending FlightAware
11:19PM 42.8200 -71.9600 85° East 309 356 9,400 -1,320 Descending FlightAware
11:20PM 42.8270 -71.8680 84° East 297 342 8,400 -1,320 Descending FlightAware
11:20PM 42.8320 -71.8270 81° East 295 339 7,900 -1,500 Descending FlightAware
11:21PM 42.8500 -71.7720 66° East 297 342 7,100 -1,560 Descending FlightAware
11:21PM 42.8690 -71.7410 50° Northeast 296 341 6,600 -1,320 Descending FlightAware
11:22PM 42.8980 -71.7040 43° Northeast 290 334 6,000 -1,200 Descending FlightAware
11:22PM 42.9090 -71.6900 43° Northeast 287 330 5,800 -900 Descending FlightAware
11:22PM 42.9360 -71.6560 43° Northeast 270 311 5,400 -720 Descending FlightAware
11:23PM 42.9640 -71.6210 42° Northeast 241 277 5,100 -1,140 Descending FlightAware
11:23PM 42.9830 -71.5980 42° Northeast 225 259 4,400 -1,800 Descending FlightAware
11:24PM 43.0040 -71.5710 43° Northeast 220 253 3,500 -1,740 Descending FlightAware
11:24PM 43.0270 -71.5360 48° Northeast 214 246 2,700 -1,500 Descending FlightAware
11:24PM 43.0320 -71.5240 60° Northeast 199 229 2,500 -1,200 Descending FlightAware
11:25PM 43.0340 -71.5080 80° East 193 222 2,200 -1,200 Descending FlightAware
11:25PM 43.0250 -71.4840 117° Southeast 159 183 1,700 -660 Descending FlightAware
11:26PM 43.0060 -71.4750 161° South 137 158 1,600 -420 Descending FlightAware
11:26PM 42.9970 -71.4710 162° South 136 157 1,400 -900 Descending FlightAware
11:26PM 42.9820 -71.4630 159° South 140 161 1,000 -840 Descending FlightAware
11:27PM 42.9670 -71.4540 156° South 139 160 700 -720 Descending FlightAware
11:27PM 42.9620 -71.4520 164° South 139 160 600 -180 Descending FlightAware
11:27PM 42.9490 -71.4430 153° Southeast 139 160 600 19,140 Level FlightAware
11:28PM 42.9086 -71.4197 153° Southeast 135 155 29,000 13,920 Climbing Boston Center
11:29PM 42.8731 -71.4003 158° South 135 155 29,000  Level Boston Center
11:30PM 42.8353 -71.3783 157° South 135 155 29,000  Level Boston Center
11:31PM 42.7997 -71.3592 158° South 135 155 29,000  Level Boston Center
11:33PM 42.7997 -71.3592 48° Northeast 135 155 29,000  Level Boston Center
11:35PM 42.9167 -71.4333 316° Northwest  Level FlightAware Approximate
11:42PM 42.9328 -71.4358 316° Northwest  Level Estimated